Skip Page Navigation
NASA JPL Caltech
NASA Logo - Jet Propulsion Laboratory + View the NASA Portal
+ Center for Near-Earth Object Studies
JPL Home Earth Solar System Stars & Galaxies Technology
JPL Solar System Dynamics
BODIES ORBITS EPHEMERIDES TOOLS PHYSICAL DATA DISCOVERY FAQ SITE MAP
JPL Small-Body Database Browser
Search: [ help ]  
(2020 KA6)
Classification: Apollo [NEO]          SPK-ID: 54017276
Ephemeris | Orbit Diagram | Orbital Elements | Mission Design | Physical Parameters | Close-Approach Data ]

[ show orbit diagram ]
Orbital Elements at Epoch 2459000.5 (2020-May-31.0) TDB
Reference: JPL 3 (heliocentric ecliptic J2000)
 Element Value Uncertainty (1-sigma)   Units 
e .5967366923991352 0.0001889  
a 2.36816146322893 0.0010741 au
q .9549926245946022 1.4253e-05 au
i 3.688153756908379 0.00039174 deg
node 64.65957476694744 0.0002613 deg
peri 228.4475908225756 0.0010513 deg
M 350.614705422369 0.006834 deg
tp 2459035.202502882950
(2020-Jul-04.70250288)
0.0016785 TDB
period 1331.114429550014
3.64
0.90559
0.002479
d
yr
n .2704500770243313 0.00018399 deg/d
Q 3.781330301863258 0.001715 au
  Orbit Determination Parameters
   # obs. used (total)      24  
   data-arc span      167 days  
   first obs. used      2020-05-27  
   last obs. used      2020-11-10  
   planetary ephem.      DE431  
   SB-pert. ephem.      SB431-N16  
   condition code      6  
   norm. resid. RMS      .66989  
   source      ORB  
   producer      Otto Matic  
   solution date      2020-Nov-11 05:26:58  

Additional Information
 Earth MOID = .0171096 au 
 Jupiter MOID = 1.46477 au 
 T_jup = 3.278 
[ hide covariance matrix ]
Orbital Elements at Epoch 2459116.5 (2020-Sep-24.0) TDB
Reference: JPL 3 (heliocentric ecliptic J2000)
 Element Value Uncertainty (1-sigma)   Units 
e .595869446150373 0.00018923  
q .9547756299117126 1.414e-05 au
tp 2459035.248201191114
(2020-Jul-04.74820119)
0.0017153 TDB
node 64.61314139903983 0.00023094 deg
peri 228.5528888895988 0.00097836 deg
i 3.678613275706383 0.00039788 deg
  Orbit Determination Parameters
   # obs. used (total)      24  
   data-arc span      167 days  
   first obs. used      2020-05-27  
   last obs. used      2020-11-10  
   planetary ephem.      DE431  
   SB-pert. ephem.      SB431-N16  
   condition code      6  
   norm. resid. RMS      .66989  
   source      ORB  
   producer      Otto Matic  
   solution date      2020-Nov-11 05:26:58  

Additional Information
 Jupiter MOID = 1.46477 au 
 T_jup = 3.278 
Orbit Covariance (6×6)
  e q tp node peri i
e 3.58095301108766E-8 -2.667637305509128E-9 -3.211341119452633E-7 -4.111515824771296E-8 1.786862453073669E-7 7.504400247608382E-8
q -2.667637305509128E-9 1.999360965787575E-10 2.419630648529065E-8 2.996456213628033E-9 -1.303697581848719E-8 -5.583997664073056E-9
tp -3.211341119452633E-7 2.419630648529065E-8 2.942312992683511E-6 3.536005216748962E-7 -1.539672089885442E-6 -6.715283656041856E-7
node -4.111515824771296E-8 2.996456213628033E-9 3.536005216748962E-7 5.333191233725406E-8 -2.228006546524398E-7 -8.630823756035592E-8
peri 1.786862453073669E-7 -1.303697581848719E-8 -1.539672089885442E-6 -2.228006546524398E-7 9.571920646557678E-7 3.757149404966135E-7
i 7.504400247608382E-8 -5.583997664073056E-9 -6.715283656041856E-7 -8.630823756035592E-8 3.757149404966135E-7 1.583053513680638E-7

Ephemeris | Orbit Diagram | Orbital Elements | Mission Design | Physical Parameters | Close-Approach Data ]

Physical Parameter Table
Parameter Symbol Value Units Sigma Reference Notes
absolute magnitude H 26.662   .3801 3 autocmod 2.8

[ show close-approach data ]
Ephemeris | Orbit Diagram | Orbital Elements | Mission Design | Physical Parameters | Close-Approach Data ]
ABOUT SSD CREDITS/AWARDS PRIVACY/COPYRIGHT GLOSSARY LINKS
FirstGov 2021-Jan-19 06:52 UT
(server date/time)  
NASA Home Page
Site Manager:   Ryan S. Park
Webmaster  Alan B. Chamberlin